User: anonymous   Login
Location: Unspecified
(0.0000°N, 0.0000°E)
Time: 11:52:54
(UTC+00:00)
Language:

DSAT - Orbit

View from above orbital plane
View from above orbital plane
View from above satellite
View from above satellite

Ground track
Ground track

The orbit data is extracted from the following two-line orbital elements,

1 42794U 17036AF  18347.84229037 +.00000177 +00000-0 +20749-4 0  9992
2 42794 097.5679 035.4766 0127860 044.7481 316.3967 14.90985509080490
Epoch (UTC): 13 December 2018 20:12:53
Eccentricity: 0.0127860
inclination: 97.5679°
perigee height: 506 km
apogee height: 684 km
right ascension of ascending node: 35.4766°
argument of perigee: 44.7481°
revolutions per day: 14.90985509
mean anomaly at epoch: 316.3967°
orbit number at epoch: 8049

The dashed part of the orbit path shows where the satellite is in the earth's shadow,  

DLR